Powrót do katalogu

COSMOS 2514

GLONASS

AktywnyNawigacjaMEO
NORAD 41330·PAYLOAD·🇷🇺 Russia

Wystrzelony Feb 7, 2016 z Plesetsk Cosmodrome

Loading…

Następne Przeloty (najbliższe 24 godziny)

TLE

ŚwieżeSource: CelesTrak SupGP

Epoka: Sep 13, 2026, 23:59 UTC

1 41330C 16008A   26256.99979167  .00000000  00000+0  00000+0 0  2568
2 41330  64.9639 309.9540 0013681 210.6156 168.1145  2.13102890    13

Śledź COSMOS 2514 w czasie rzeczywistym z AllMySat

Download on the App Store